Location: Caixon
(43.4106°N, 0.0273°E)
Time: 03:14:35
(UTC+00:00)

Cosmos 2181 Rocket - Pass Details

Date: 16 October 2021
Orbit: 952 x 1014 km, 82.9° (Epoch: 30 November)

Event Time Altitude Azimuth Distance (km) Brightness Sun altitude
Rises 04:58:18 0° 192° (SSW) 3,614 6.8 -14.7°
Reaches altitude 10° 05:00:47 10° 194° (SSW) 2,675 6.1 -14.2°
Maximum altitude 05:06:53 73° 279° (W) 1,005 3.9 -13.1°
Drops below altitude 10° 05:13:07 10° 4° (N) 2,722 6.4 -12.0°
Sets 05:15:40 0° 7° (N) 3,682 7.1 -11.6°
